IRIDIUM 84 [-] (25530 NORAD) Tracking and Keplerian Element Data

This shows tracking and keplerian element data for the satellite.

Feedback or suggestion? Click here.




ElementValue
Catalog25530
NameIRIDIUM 84 [-]
Epoch Orbit5001
Epoch Day308.16263985
Epoch Year2018
RAAN133.976
Inclination86.3303
Eccentricity0.0023608
Argument of Perigee330.0623
Mean Anonmoly29.9337
Mean Motion16.48255628
Decay Rate0.14692908
L11 25530U 98066D 18308.16263985 .14692908 -12992-5 17166-3 0 9996
L22 25530 86.3303 133.9760 0023608 330.0623 29.9337 16.48255628 50011

Live tracking and technical data element details for IRIDIUM 84 [-] (NORAD 25530). IRIDIUM 84 [-] can be tracked NOW for your location showing map with azimuth and elevation plus other details from your city location.

Track the satellite on the map from your city or location and see movement details for azimuth, elevation, latitude, longitude, range, height, and movement on the map or in text.







IsCatalogInMostPopularTable: catalog: 25530, numindb: 46
Update: records affected: 1



GetName: 25530 IRIDIUM 84 [-]

Hit Count: updated at: Wed, 21 Nov 2018 05:25:35 GMT